Miscellaneous Local Product
Issued by NWS Hastings, NE

Home | Current Version | Previous Version | Text Only | Print | Product List | Glossary Off
Versions: 1 2 3 4 5 6 7 8 9 10 11 12 13 14 15 16 17 18 19 20 21 22 23 24 25 26 27 28 29 30 31 32 33 34 35 36 37 38 39 40 41 42 43 44 45 46 47 48 49 50

000
AXUS43 KGID 010310
MISGRI

GID CWA HOURLY WEATHER ROUNDUP
NATIONAL WEATHER SERVICE HASTINGS NE
1000 PM CDT TUE SEP 30 2014

NOTE: "FAIR" INDICATES FEW OR NO CLOUDS BELOW 12,000 FEET WITH NO
SIGNIFICANT WEATHER AND/OR OBSTRUCTIONS TO VISIBILITY.

...SOUTH CENTRAL NEBRASKA...

CITY           SKY/WX    TMP DP  RH WIND       PRES   REMARKS
GRAND ISLAND   PTCLDY    63  61  93 SE7       29.75S FOG
HASTINGS       FOG       62  60  93 SE8       29.75R VSB 1/2
KEARNEY        PTCLDY    59  55  88 E3        29.75R
ORD            PTCLDY    61  57  87 E6        29.72R
YORK           CLOUDY    63  63 100 SE10      29.76S FOG
AURORA         PTCLDY    61  61 100 SE8       29.75S FOG
LEXINGTON      MOCLDY    61  54  77 E3        29.74S
HOLDREGE       PTCLDY    58  55  88 CALM      29.75R
HEBRON         CLOUDY    65  63  90 E8G16     29.74S

...NEBRASKA PANHANDLE...

CITY           SKY/WX    TMP DP  RH WIND       PRES   REMARKS
CHADRON        CLOUDY    55  50  83 S5        29.73R
ALLIANCE       MOCLDY    51  44  77 W9        29.76R
SCOTTSBLUFF    CLOUDY    61  42  49 W13       29.78R
SIDNEY         LGT RAIN  58  45  62 W9        29.83R

...WESTERN AND NORTH CENTRAL NEBRASKA...

CITY           SKY/WX    TMP DP  RH WIND       PRES   REMARKS
VALENTINE      MOCLDY    52  45  77 S3        29.70R
AINSWORTH      MOCLDY    53  45  75 S5        29.71R
ONEILL         CLOUDY    66  62  86 SE7G16    29.73R
BROKEN BOW     MOCLDY    57  49  74 CALM      29.73R
IMPERIAL       MOCLDY    59  48  67 CALM      29.76R
NORTH PLATTE   CLOUDY    61  49  64 W7        29.75R
MCCOOK         MOCLDY    64  49  57 E3        29.73S

...EASTERN NEBRASKA...

CITY           SKY/WX    TMP DP  RH WIND       PRES   REMARKS
NORFOLK        MOCLDY    63  61  93 SE9       29.75S
SO SIOUX CITY  MOCLDY    64  62  93 SE14      29.78S
TEKAMAH        CLOUDY    64  62  93 CALM      29.78R FOG
COLUMBUS       CLOUDY    61  57  88 E6        29.77S
ALBION         PTCLDY    62  59  91 SE6       29.75S FOG
OMAHA EPPLEY   CLOUDY    66  62  87 SE9       29.78S
OFFUTT AFB     RAIN      65  65 100 E10       29.78R
MILLARD        LGT RAIN  65  64  94 SE5       29.77S
LINCOLN        LGT RAIN  65  63  93 SE9       29.77S
NEBRASKA CITY  CLOUDY    64  64 100 NE10      29.79F
BEATRICE       TSTM      64  63  95 NE12G17   29.76F
FALLS CITY     CLOUDY    67  65  93 NW5       29.77R THUNDER

...NORTHERN KANSAS...

CITY           SKY/WX    TMP DP  RH WIND       PRES   REMARKS
GOODLAND       CLOUDY    59  48  67 S3        29.78R
HILL CITY      CLEAR     65  60  84 E6        29.73R
NORTON         CLEAR     59  50  72 E5        29.73
PHILLIPSBURG   CLEAR     66  66 100 NE6       29.73R
SMITH CENTER   CLEAR     64  63  94 E12       29.72F
BELOIT         CLEAR     66  64  94 E5        29.70S
HAYS           CLEAR     64  57  77 NE7       29.70S
RUSSELL        MOCLDY    69  62  78 CALM      29.69R
CONCORDIA      LGT RAIN  66  66 100 SE3       29.72F FOG
SALINA         LGT RAIN  71  64  78 S12       29.70S
TOPEKA         MOCLDY    76  61  59 SE14      29.75S



USA.gov is the U.S. government's official web portal to all federal, state and local government web resources and services.